When you browse on this site, cookies collect data to enhance your experience and personalize the content and advertising you see.
Visit our Privacy Policy to learn more. By continuing to use the site, you agree to this use of cookies and data.
  • In Hungary
  • List of Countries
  • For 7 days
  • Water Temperature
  • Weather Map
  • News
  • Weather Widgets
  • user-avatar
    Login

    Hourly Weather Shendzhiy

    Today, 18 October, Friday

    Time Temperature Precipitation Wind Pressure Humidity
    00:00 +16°C° 0 mm 0 mps 760 mmHg 68%
    01:00 +16°C° 0 mm 0 mps 760 mmHg 69%
    02:00 +15°C° 0 mm 0 mps 760 mmHg 69%
    03:00 +15°C° 0 mm 0 mps 760 mmHg 70%
    04:00 +15°C° 0 mm 0 mps 759 mmHg 70%
    05:00 +15°C° 0 mm 0 mps 759 mmHg 71%
    06:00 +14°C° 0 mm 0 mps 759 mmHg 71%
    07:00 +16°C° 0 mm 0 mps 759 mmHg 66%
    08:00 +17°C° 0 mm 0 mps 759 mmHg 61%
    09:00 +19°C° 0 mm 0 mps 760 mmHg 56%
    10:00 +20°C° 0 mm 0 mps 760 mmHg 51%
    11:00 +22°C° 0 mm 0 mps 760 mmHg 45%
    12:00 +26°C° 0 mm 1 mps 760 mmHg 40%
    13:00 +26°C° 0 mm 1 mps 759 mmHg 40%
    14:00 +26°C° 0 mm 1 mps 759 mmHg 40%
    15:00 +26°C° 0 mm 1 mps 759 mmHg 39%
    16:00 +25°C° 0 mm 1 mps 759 mmHg 44%
    17:00 +23°C° 0 mm 1 mps 759 mmHg 49%
    18:00 +20°C° 0 mm 0 mps 759 mmHg 54%
    19:00 +21°C° 0 mm 1 mps 759 mmHg 56%
    20:00 +20°C° 0 mm 1 mps 759 mmHg 58%
    21:00 +20°C° 0 mm 1 mps 759 mmHg 61%
    22:00 +19°C° 0 mm 1 mps 759 mmHg 62%
    23:00 +19°C° 0 mm 1 mps 759 mmHg 64%

    Tomorrow, 19 October, Saturday

    Time Temperature Precipitation Wind Pressure Humidity
    00:00 +18°C° 0 mm 1 mps 759 mmHg 66%
    01:00 +18°C° 0 mm 1 mps 759 mmHg 67%
    02:00 +18°C° 0 mm 1 mps 759 mmHg 68%
    03:00 +16°C° 0 mm 1 mps 759 mmHg 70%
    04:00 +16°C° 0 mm 1 mps 759 mmHg 71%
    05:00 +16°C° 0 mm 1 mps 760 mmHg 72%
    06:00 +15°C° 0 mm 1 mps 760 mmHg 73%
    07:00 +16°C° 0 mm 0 mps 760 mmHg 68%
    08:00 +17°C° 0 mm 0 mps 760 mmHg 64%
    09:00 +18°C° 0 mm 0 mps 761 mmHg 59%
    10:00 +20°C° 0 mm 0 mps 761 mmHg 54%
    11:00 +22°C° 0 mm 0 mps 761 mmHg 49%
    12:00 +24°C° 0 mm 0 mps 761 mmHg 44%
    13:00 +26°C° 0 mm 1 mps 760 mmHg 43%
    14:00 +26°C° 0 mm 1 mps 760 mmHg 42%
    15:00 +26°C° 0 mm 1 mps 760 mmHg 42%
    16:00 +25°C° 0 mm 1 mps 760 mmHg 46%
    17:00 +23°C° 0 mm 1 mps 760 mmHg 51%
    18:00 +21°C° 0 mm 1 mps 760 mmHg 55%
    19:00 +21°C° 0 mm 1 mps 760 mmHg 57%
    20:00 +20°C° 0 mm 1 mps 761 mmHg 58%
    21:00 +20°C° 0 mm 1 mps 761 mmHg 60%
    22:00 +19°C° 0 mm 1 mps 761 mmHg 62%
    23:00 +19°C° 0 mm 1 mps 761 mmHg 63%

    Day after tomorrow, 20 October, Sunday

    Time Temperature Precipitation Wind Pressure Humidity
    00:00 +18°C° 0 mm 1 mps 761 mmHg 65%
    01:00 +18°C° 0 mm 1 mps 761 mmHg 67%
    02:00 +16°C° 0 mm 1 mps 761 mmHg 68%
    03:00 +15°C° 0 mm 0 mps 761 mmHg 70%
    04:00 +15°C° 0 mm 0 mps 761 mmHg 71%
    05:00 +14°C° 0 mm 0 mps 762 mmHg 72%
    06:00 +15°C° 0 mm 1 mps 762 mmHg 74%
    07:00 +16°C° 0 mm 1 mps 762 mmHg 69%
    08:00 +18°C° 0 mm 1 mps 762 mmHg 64%
    09:00 +20°C° 0 mm 1 mps 762 mmHg 59%
    10:00 +21°C° 0 mm 1 mps 762 mmHg 55%
    11:00 +23°C° 0 mm 2 mps 762 mmHg 50%
    12:00 +25°C° 0 mm 2 mps 762 mmHg 45%
    13:00 +25°C° 0 mm 2 mps 762 mmHg 43%
    14:00 +26°C° 0 mm 3 mps 762 mmHg 42%
    15:00 +27°C° 0 mm 3 mps 761 mmHg 40%
    16:00 +25°C° 0 mm 3 mps 761 mmHg 45%
    17:00 +24°C° 0 mm 3 mps 761 mmHg 50%
    18:00 +21°C° 0 mm 3 mps 761 mmHg 54%
    19:00 +20°C° 0 mm 3 mps 761 mmHg 56%
    20:00 +20°C° 0 mm 3 mps 761 mmHg 58%
    21:00 +19°C° 0 mm 4 mps 762 mmHg 59%
    22:00 +18°C° 0 mm 3 mps 762 mmHg 61%
    23:00 +18°C° 0 mm 3 mps 762 mmHg 63%

    21 October, Monday

    Time Temperature Precipitation Wind Pressure Humidity
    00:00 +17°C° 0 mm 3 mps 762 mmHg 65%
    01:00 +16°C° 0 mm 2 mps 762 mmHg 66%
    02:00 +16°C° 0 mm 2 mps 762 mmHg 67%
    03:00 +15°C° 0 mm 2 mps 762 mmHg 68%
    04:00 +15°C° 0 mm 2 mps 762 mmHg 69%
    05:00 +14°C° 0 mm 2 mps 762 mmHg 70%
    06:00 +14°C° 0 mm 2 mps 762 mmHg 71%
    07:00 +15°C° 0 mm 2 mps 762 mmHg 66%
    08:00 +16°C° 0 mm 3 mps 762 mmHg 62%
    09:00 +17°C° 0 mm 3 mps 762 mmHg 58%
    10:00 +19°C° 0 mm 3 mps 762 mmHg 53%
    11:00 +20°C° 0 mm 3 mps 762 mmHg 48%
    12:00 +22°C° 0 mm 4 mps 762 mmHg 44%
    13:00 +23°C° 0 mm 4 mps 762 mmHg 41%
    14:00 +23°C° 0 mm 4 mps 762 mmHg 39%
    15:00 +25°C° 0 mm 4 mps 762 mmHg 36%
    16:00 +22°C° 0 mm 4 mps 761 mmHg 39%
    17:00 +21°C° 0 mm 4 mps 761 mmHg 43%
    18:00 +19°C° 0 mm 4 mps 761 mmHg 46%
    19:00 +19°C° 0 mm 4 mps 761 mmHg 48%
    20:00 +18°C° 0 mm 4 mps 761 mmHg 51%
    21:00 +17°C° 0 mm 4 mps 761 mmHg 53%
    22:00 +15°C° 0 mm 4 mps 761 mmHg 57%
    23:00 +16°C° 0 mm 3 mps 761 mmHg 61%

    22 October, Tuesday

    Time Temperature Precipitation Wind Pressure Humidity
    00:00 +14°C° 0 mm 3 mps 761 mmHg 64%
    01:00 +13°C° 0 mm 3 mps 761 mmHg 67%
    02:00 +13°C° 0 mm 3 mps 761 mmHg 70%
    03:00 +13°C° 0 mm 2 mps 761 mmHg 72%
    04:00 +13°C° 0 mm 2 mps 761 mmHg 74%
    05:00 +13°C° 0 mm 2 mps 761 mmHg 76%
    06:00 +12°C° 0 mm 2 mps 762 mmHg 78%
    07:00 +13°C° 0 mm 2 mps 762 mmHg 74%
    08:00 +15°C° 0 mm 2 mps 762 mmHg 70%
    09:00 +16°C° 0 mm 2 mps 762 mmHg 65%
    10:00 +17°C° 0 mm 2 mps 761 mmHg 60%
    11:00 +19°C° 0 mm 2 mps 761 mmHg 56%
    12:00 +21°C° 0 mm 2 mps 761 mmHg 51%
    13:00 +23°C° 0 mm 2 mps 761 mmHg 49%
    14:00 +23°C° 0 mm 2 mps 761 mmHg 48%
    15:00 +24°C° 0 mm 2 mps 760 mmHg 47%
    16:00 +22°C° 0 mm 1 mps 760 mmHg 52%
    17:00 +21°C° 0 mm 1 mps 760 mmHg 56%
    18:00 +19°C° 0 mm 1 mps 760 mmHg 61%
    19:00 +18°C° 0 mm 1 mps 760 mmHg 62%
    20:00 +18°C° 0 mm 1 mps 760 mmHg 64%
    21:00 +16°C° 0 mm 1 mps 761 mmHg 65%
    22:00 +16°C° 0 mm 1 mps 761 mmHg 66%
    23:00 +15°C° 0 mm 1 mps 761 mmHg 67%

    23 October, Wednesday

    Time Temperature Precipitation Wind Pressure Humidity
    00:00 +15°C° 0 mm 1 mps 761 mmHg 69%
    01:00 +14°C° 0 mm 1 mps 761 mmHg 69%
    02:00 +14°C° 0 mm 1 mps 761 mmHg 70%
    03:00 +14°C° 0 mm 1 mps 761 mmHg 71%
    04:00 +13°C° 0 mm 1 mps 761 mmHg 72%
    05:00 +13°C° 0 mm 1 mps 762 mmHg 73%
    06:00 +11°C° 0 mm 0 mps 762 mmHg 73%
    07:00 +13°C° 0 mm 0 mps 762 mmHg 68%
    08:00 +14°C° 0 mm 0 mps 762 mmHg 63%
    09:00 +15°C° 0 mm 0 mps 762 mmHg 57%
    10:00 +19°C° 0 mm 1 mps 762 mmHg 52%
    11:00 +20°C° 0 mm 1 mps 762 mmHg 47%
    12:00 +22°C° 0 mm 1 mps 762 mmHg 42%
    13:00 +22°C° 0 mm 1 mps 762 mmHg 40%
    14:00 +22°C° 0 mm 1 mps 762 mmHg 38%
    15:00 +23°C° 0 mm 1 mps 762 mmHg 36%
    16:00 +21°C° 0 mm 1 mps 762 mmHg 40%
    17:00 +20°C° 0 mm 1 mps 762 mmHg 44%
    18:00 +18°C° 0 mm 1 mps 762 mmHg 48%
    19:00 +16°C° 0 mm 1 mps 762 mmHg 49%
    20:00 +16°C° 0 mm 1 mps 762 mmHg 51%
    21:00 +15°C° 0 mm 1 mps 762 mmHg 52%
    22:00 +15°C° 0 mm 1 mps 762 mmHg 55%
    23:00 +14°C° 0 mm 1 mps 762 mmHg 57%
    Show more